CW2693 Weather Reports


Display with metric or nautical units.
time (UTC)temp
F
wind
direction
speed
MPH
gust
MPH
rain 1hr
in
rain 24hr
in
rain mn
in
humidity
%
barometer
mb
20180526135830 79 161 0.0 0.0 0.00 0.00 0.00 81 1015.2
20180526135340 79 144 0.0 0.0 0.00 0.00 0.00 81 1015.2
20180526134829 79 144 0.0 0.0 0.00 0.00 0.00 81 1015.0
20180526134338 79 143 0.0 0.0 0.00 0.00 0.00 81 1015.1
20180526133828 79 136 0.0 0.0 0.00 0.00 0.00 81 1015.1
20180526133339 79 125 0.0 0.0 0.00 0.00 0.00 81 1015.0
20180526132828 79 157 0.0 0.0 0.00 0.00 0.00 81 1015.0
20180526132321 79 126 0.0 0.0 0.00 0.00 0.00 81 1014.9
20180526131830 79 123 0.0 0.0 0.00 0.00 0.00 81 1015.0
20180526131339 79 162 0.0 0.0 0.00 0.00 0.00 82 1015.0
20180526130829 78 131 0.0 0.0 0.00 0.00 0.00 81 1015.0
20180526130323 78 133 0.0 0.0 0.00 0.00 0.00 82 1015.0
20180526125831 78 122 0.0 0.0 0.00 0.00 0.00 82 1014.9
20180526125324 78 133 0.0 0.0 0.00 0.00 0.00 82 1014.9
20180526124833 78 130 0.0 0.0 0.00 0.00 0.00 82 1014.8
20180526124322 78 138 0.0 0.0 0.00 0.00 0.00 81 1014.8
20180526123836 78 144 0.0 0.0 0.00 0.00 0.00 81 1014.7
20180526123327 78 150 0.0 0.0 0.00 0.00 0.00 82 1014.6
20180526122839 78 128 0.0 0.0 0.00 0.00 0.00 81 1014.6
20180526122328 78 113 0.0 0.0 0.00 0.00 0.00 82 1014.6
20180526121840 78 133 0.0 0.0 0.00 0.00 0.00 82 1014.7
20180526121329 78 134 0.0 0.0 0.00 0.00 0.00 82 1014.7
20180526120817 78 130 0.0 0.0 0.00 0.00 0.00 82 1014.7
20180526120331 78 132 0.0 0.0 0.00 0.00 0.00 82 1014.7
20180526115824 78 156 0.0 0.0 0.00 0.00 0.00 82 1014.7
20180526115334 78 150 0.0 0.0 0.00 0.00 0.00 83 1014.5
20180526114824 78 135 0.0 1.0 0.00 0.00 0.00 83 1014.4
20180526114333 78 138 0.0 1.0 0.00 0.00 0.00 83 1014.4
20180526113822 78 112 0.0 1.0 0.00 0.00 0.00 83 1014.5
20180526113336 78 134 0.0 5.0 0.00 0.00 0.00 83 1014.5
20180526112825 78 162 0.0 7.0 0.00 0.00 0.00 83 1014.5
20180526112336 78 153 0.0 7.0 0.00 0.00 0.00 83 1014.4
20180526111826 78 113 0.0 9.0 0.00 0.00 0.00 83 1014.3
20180526111339 78 98 0.0 9.0 0.00 0.00 0.00 83 1014.3
20180526110828 78 153 0.0 0.0 0.00 0.00 0.00 83 1014.3
20180526110339 77 148 0.0 1.0 0.00 0.00 0.00 83 1014.2
20180526105828 77 147 0.0 2.0 0.00 0.00 0.00 83 1014.1
20180526105338 77 136 0.0 2.0 0.00 0.00 0.00 84 1014.2
20180526104827 77 165 0.0 9.0 0.00 0.00 0.00 83 1014.1
20180526104337 77 139 1.0 9.0 0.00 0.00 0.00 83 1014.2
20180526103827 77 136 0.0 1.0 0.00 0.00 0.00 84 1013.9
20180526103323 77 155 0.0 5.0 0.00 0.00 0.00 84 1013.9
20180526102832 77 155 0.0 5.0 0.00 0.00 0.00 84 1013.9
20180526102320 77 151 0.0 9.0 0.00 0.00 0.00 84 1013.9
20180526101830 77 146 1.0 9.0 0.00 0.00 0.00 84 1013.8
20180526101339 77 138 0.0 0.0 0.00 0.00 0.00 83 1013.7
20180526100828 77 146 0.0 5.0 0.00 0.00 0.00 83 1013.7
20180526100322 77 150 0.0 5.0 0.00 0.00 0.00 83 1013.7
20180526095831 77 132 0.0 1.0 0.00 0.00 0.00 83 1013.6
20180526095322 77 142 0.0 4.0 0.00 0.00 0.00 83 1013.5
20180526094835 77 111 0.0 9.0 0.00 0.00 0.00 83 1013.6
20180526094328 77 142 0.0 9.0 0.00 0.00 0.00 83 1013.4
20180526093837 77 106 0.0 1.0 0.00 0.00 0.00 83 1013.4
20180526093328 77 102 0.0 1.0 0.00 0.00 0.00 83 1013.4
20180526092837 77 151 0.0 1.0 0.00 0.00 0.00 83 1013.4
20180526092327 77 159 0.0 1.0 0.00 0.00 0.00 83 1013.5
20180526091836 77 157 0.0 0.0 0.00 0.00 0.00 83 1013.5
20180526091325 77 176 0.0 1.0 0.00 0.00 0.00 83 1013.5
20180526090821 77 169 0.0 1.0 0.00 0.00 0.00 83 1013.6
20180526090331 77 157 0.0 0.0 0.00 0.00 0.00 83 1013.6
20180526085820 77 171 0.0 0.0 0.00 0.00 0.00 83 1013.7
20180526085332 77 128 0.0 0.0 0.00 0.00 0.00 84 1013.7
20180526084821 77 173 0.0 9.0 0.00 0.00 0.00 84 1013.6
20180526084331 77 155 0.0 9.0 0.00 0.00 0.00 84 1013.6
20180526083821 77 186 0.0 1.0 0.00 0.00 0.00 84 1013.5
20180526083335 77 153 0.0 1.0 0.00 0.00 0.00 84 1013.6
20180526082824 77 150 0.0 0.0 0.00 0.00 0.00 84 1013.7
20180526082320 77 146 0.0 0.0 0.00 0.00 0.00 85 1013.7
20180526081830 77 165 0.0 0.0 0.00 0.00 0.00 85 1013.7
20180526081340 77 165 0.0 0.0 0.00 0.00 0.00 85 1013.7
20180526080829 77 160 0.0 0.0 0.00 0.00 0.00 85 1013.8
20180526080339 77 132 0.0 0.0 0.00 0.00 0.00 85 1013.7
20180526075828 77 53 0.0 0.0 0.00 0.00 0.00 85 1013.7
20180526075338 77 126 0.0 0.0 0.00 0.00 0.00 85 1013.9
20180526074828 77 141 0.0 0.0 0.00 0.00 0.00 85 1013.8
20180526074321 77 146 0.0 0.0 0.00 0.00 0.00 85 1013.9
20180526073831 76 132 0.0 0.0 0.00 0.00 0.00 85 1013.9
20180526073325 76 123 0.0 0.0 0.00 0.00 0.00 86 1013.9
20180526072834 76 155 0.0 0.0 0.00 0.00 0.00 86 1013.9
20180526072324 76 159 0.0 0.0 0.00 0.00 0.00 86 1013.9
20180526071834 76 159 0.0 0.0 0.00 0.00 0.00 85 1013.8
20180526071324 76 153 0.0 0.0 0.00 0.00 0.00 85 1013.9
20180526070833 76 142 0.0 0.0 0.00 0.00 0.00 85 1013.9
20180526070324 76 121 0.0 0.0 0.00 0.00 0.00 85 1013.9
20180526065840 76 128 0.0 0.0 0.00 0.00 0.00 85 1014.0
20180526065329 76 138 0.0 0.0 0.00 0.00 0.00 85 1014.2
20180526064839 76 138 0.0 0.0 0.00 0.00 0.00 85 1014.1
20180526064328 76 142 0.0 0.0 0.00 0.00 0.00 86 1014.2
20180526063838 76 156 0.0 0.0 0.00 0.00 0.00 86 1014.3
20180526063329 76 156 0.0 0.0 0.00 0.00 0.00 85 1014.3
20180526062838 76 156 0.0 0.0 0.00 0.00 0.00 85 1014.3
20180526062327 76 156 0.0 0.0 0.00 0.00 0.00 85 1014.4
20180526061836 76 156 0.0 0.0 0.00 0.00 0.00 85 1014.6
20180526061329 76 156 0.0 0.0 0.00 0.00 0.00 85 1014.8
20180526060839 75 156 0.0 0.0 0.00 0.00 0.00 85 1014.7
20180526060329 76 156 0.0 0.0 0.00 0.00 0.00 85 1014.8
20180526055821 76 156 0.0 0.0 0.00 0.00 0.00 85 1014.8
20180526055330 76 156 0.0 0.0 0.00 0.00 0.00 85 1014.9
20180526054821 76 156 0.0 0.0 0.00 0.00 0.00 85 1015.0
20180526054331 75 156 0.0 0.0 0.00 0.00 0.00 85 1015.0
20180526053840 75 156 0.0 0.0 0.00 0.00 0.00 85 1015.1
20180526053335 75 157 0.0 0.0 0.00 0.00 0.00 85 1015.1
20180526052824 75 157 0.0 0.0 0.00 0.00 0.00 85 1015.0
20180526052333 75 157 0.0 0.0 0.00 0.00 0.00 85 1015.1
20180526051822 75 157 0.0 0.0 0.00 0.00 0.00 85 1015.3
20180526051332 75 157 0.0 0.0 0.00 0.00 0.00 85 1015.4
20180526050821 75 157 0.0 0.0 0.00 0.00 0.00 85 1015.4
20180526050331 75 157 0.0 0.0 0.00 0.00 0.00 85 1015.4
20180526045821 75 157 0.0 0.0 0.00 0.00 0.00 85 1015.5
20180526045331 75 215 0.0 0.0 0.00 0.00 0.00 85 1015.6
20180526044824 75 215 0.0 0.0 0.00 0.00 0.00 85 1015.6
20180526044333 75 215 0.0 0.0 0.00 0.00 0.00 85 1015.6
20180526043823 75 215 0.0 0.0 0.00 0.00 0.00 85 1015.7
20180526043334 75 215 0.0 0.0 0.00 0.00 0.00 85 1015.7
20180526042824 75 215 0.0 0.0 0.00 0.00 0.00 85 1015.6
20180526042334 75 215 0.0 0.0 0.00 0.00 0.00 85 1015.7
20180526041823 75 215 0.0 0.0 0.00 0.00 0.00 85 1015.5
20180526041332 75 215 0.0 0.0 0.00 0.00 0.00 85 1015.6
20180526040826 75 215 0.0 0.0 0.00 0.00 0.00 85 1015.6
20180526040340 75 215 0.0 0.0 0.00 0.00 0.00 85 1015.6
20180526035830 76 215 0.0 0.0 0.00 0.00 0.00 85 1015.7
20180526035339 76 215 0.0 0.0 0.00 0.00 0.00 85 1015.7
20180526034828 76 215 0.0 0.0 0.00 0.00 0.00 85 1015.8
20180526034337 76 215 0.0 0.0 0.00 0.00 0.00 85 1015.8
20180526033826 76 215 0.0 0.0 0.00 0.00 0.00 85 1015.8
20180526033337 76 215 0.0 0.0 0.00 0.00 0.00 85 1015.8
20180526032826 76 215 0.0 0.0 0.00 0.00 0.00 85 1015.9
20180526032339 76 215 0.0 0.0 0.00 0.00 0.00 85 1015.9
20180526031828 76 215 0.0 0.0 0.00 0.00 0.00 85 1015.9
20180526031338 76 215 0.0 0.0 0.00 0.00 0.00 85 1015.9
20180526030827 76 215 0.0 0.0 0.00 0.00 0.00 85 1015.9
20180526030338 76 215 0.0 0.0 0.00 0.00 0.00 85 1015.9
20180526025827 75 215 0.0 0.0 0.00 0.00 0.00 85 1015.9
20180526025336 75 215 0.0 0.0 0.00 0.00 0.00 85 1015.9
20180526024828 75 215 0.0 0.0 0.00 0.00 0.00 84 1016.0
20180526024335 75 215 0.0 0.0 0.00 0.00 0.00 84 1016.0
20180526023828 75 216 0.0 0.0 0.00 0.00 0.00 84 1016.0
20180526023338 75 216 0.0 0.0 0.00 0.00 0.00 84 1016.0
20180526022827 75 216 0.0 0.0 0.00 0.00 0.00 84 1015.9
20180526022336 75 215 0.0 0.0 0.00 0.00 0.00 84 1016.0
20180526021825 75 224 0.0 0.0 0.00 0.00 0.00 84 1015.9
20180526021337 75 224 0.0 0.0 0.00 0.00 0.00 84 1015.9
20180526020823 75 224 0.0 0.0 0.00 0.00 0.00 84 1015.9
20180526020334 75 224 0.0 0.0 0.00 0.00 0.00 84 1015.8
20180526015828 75 224 0.0 0.0 0.00 0.00 0.00 84 1015.8
20180526015337 75 224 0.0 0.0 0.00 0.00 0.00 84 1015.7
20180526014826 75 224 0.0 0.0 0.00 0.00 0.00 84 1015.7
20180526014335 75 209 0.0 0.0 0.00 0.00 0.00 84 1015.8
20180526013824 76 228 0.0 0.0 0.00 0.00 0.00 84 1015.8
20180526013338 76 228 0.0 0.0 0.00 0.00 0.00 84 1015.7
20180526012828 76 223 0.0 0.0 0.00 0.00 0.00 84 1015.7
20180526012338 76 231 0.0 0.0 0.00 0.00 0.00 83 1015.7
20180526011827 76 229 0.0 0.0 0.00 0.00 0.00 83 1015.5
20180526011321 76 221 0.0 0.0 0.00 0.00 0.00 83 1015.5
20180526010830 76 228 0.0 0.0 0.00 0.00 0.00 83 1015.5
20180526010341 76 200 0.0 0.0 0.00 0.00 0.00 83 1015.5
20180526005830 76 194 0.0 0.0 0.00 0.00 0.00 83 1015.5
20180526005339 76 205 0.0 0.0 0.00 0.00 0.00 83 1015.5
20180526004827 76 196 0.0 0.0 0.00 0.00 0.00 83 1015.5
20180526004336 76 212 0.0 0.0 0.00 0.00 0.00 83 1015.5
20180526003826 76 229 0.0 0.0 0.00 0.00 0.00 82 1015.4
20180526003324 76 199 0.0 0.0 0.00 0.00 0.00 82 1015.3
20180526002834 76 174 0.0 6.0 0.00 0.00 0.00 82 1015.3
20180526002324 76 187 0.0 0.0 0.00 0.00 0.00 83 1015.3
20180526001837 76 187 0.0 0.0 0.00 0.00 0.00 82 1015.2
20180526001326 76 200 0.0 0.0 0.00 0.00 0.00 83 1015.2
20180526000835 76 194 0.0 0.0 0.00 0.00 0.00 83 1015.2
20180526000326 76 182 0.0 0.0 0.00 0.00 0.00 83 1015.3
20180525235835 77 215 0.0 9.0 0.00 0.00 0.00 83 1015.2
20180525235327 77 196 0.0 0.0 0.00 0.00 0.00 83 1015.2
20180525234820 77 193 0.0 0.0 0.00 0.00 0.00 83 1015.3
20180525234332 77 184 0.0 0.0 0.00 0.00 0.00 83 1015.3
20180525233822 77 198 0.0 0.0 0.00 0.00 0.00 83 1015.2
20180525233333 77 199 0.0 0.0 0.00 0.00 0.00 83 1015.3
20180525232823 77 222 0.0 0.0 0.00 0.00 0.00 84 1015.3
20180525232333 77 188 0.0 0.0 0.00 0.00 0.00 84 1015.3
20180525231823 77 174 0.0 0.0 0.00 0.00 0.00 84 1015.3
20180525231335 77 184 0.0 0.0 0.00 0.00 0.00 84 1015.4
20180525230828 77 200 0.0 0.0 0.00 0.00 0.00 84 1015.2
20180525230338 77 181 0.0 11.0 0.00 0.00 0.00 84 1015.3
20180525225827 77 157 0.0 1.0 0.00 0.00 0.00 84 1015.2
20180525225339 77 193 0.0 0.0 0.00 0.00 0.00 85 1015.1
20180525224829 77 209 0.0 0.0 0.00 0.00 0.00 84 1015.3
20180525224339 77 197 0.0 0.0 0.00 0.00 0.00 84 1015.4
20180525223828 77 196 0.0 0.0 0.00 0.00 0.00 84 1015.2
20180525223339 77 177 0.0 0.0 0.00 0.00 0.00 84 1015.3
20180525222828 77 173 0.0 0.0 0.00 0.00 0.00 84 1015.4
20180525222321 77 166 0.0 0.0 0.00 0.00 0.00 84 1015.3
20180525221831 77 183 0.0 1.0 0.00 0.00 0.00 84 1015.2
20180525221321 77 196 0.0 1.0 0.00 0.00 0.00 84 1015.1
20180525220830 77 196 0.0 0.0 0.00 0.00 0.00 84 1015.1
20180525220321 76 180 0.0 13.0 0.00 0.00 0.00 84 1015.3
20180525215831 76 148 3.0 15.0 0.00 0.00 0.00 84 1015.3
20180525215321 76 120 3.0 19.0 0.00 0.00 0.00 84 1015.2
20180525214830 78 141 10.0 19.0 0.00 0.00 0.00 82 1015.1
20180525214327 78 198 0.0 8.0 0.00 0.00 0.00 83 1015.0
20180525213837 78 135 0.0 8.0 0.00 0.00 0.00 83 1015.0
20180525213327 79 173 0.0 11.0 0.00 0.00 0.00 82 1014.9
20180525212836 79 122 2.0 11.0 0.00 0.00 0.00 83 1015.0
20180525212328 79 176 0.0 0.0 0.00 0.00 0.00 83 1015.0
20180525211821 79 170 0.0 10.0 0.00 0.00 0.00 83 1015.0
20180525211330 79 161 0.0 10.0 0.00 0.00 0.00 83 1015.1
20180525210840 79 167 0.0 0.0 0.00 0.00 0.00 83 1015.2
20180525210331 79 173 0.0 9.0 0.00 0.00 0.00 83 1015.3
20180525205828 78 138 2.0 14.0 0.00 0.00 0.00 83 1015.3
20180525205338 78 145 6.0 14.0 0.00 0.00 0.00 83 1015.2
20180525204827 79 162 7.0 13.0 0.00 0.00 0.00 83 1015.4
20180525204336 79 153 6.0 11.0 0.00 0.00 0.00 83 1015.4
20180525203826 79 175 3.0 11.0 0.00 0.00 0.00 83 1015.5
20180525203336 79 165 0.0 13.0 0.00 0.00 0.00 83 1015.6
20180525202828 79 145 6.0 13.0 0.00 0.00 0.00 83 1015.6
20180525202334 79 155 1.0 10.0 0.00 0.00 0.00 83 1015.5
20180525201828 79 134 0.0 9.0 0.00 0.00 0.00 83 1015.5
20180525201337 79 150 0.0 12.0 0.00 0.00 0.00 83 1015.5
20180525200826 79 173 6.0 16.0 0.00 0.00 0.00 83 1015.5
20180525200337 79 140 8.0 16.0 0.00 0.00 0.00 83 1015.7
20180525195826 79 132 7.0 14.0 0.00 0.00 0.00 83 1015.7
20180525195335 79 159 0.0 14.0 0.00 0.00 0.00 83 1015.8
20180525194823 79 155 5.0 14.0 0.00 0.00 0.00 83 1015.8
20180525194332 79 103 5.0 13.0 0.00 0.00 0.00 83 1015.9
20180525193824 79 165 3.0 14.0 0.00 0.00 0.00 83 1016.0
20180525193319 79 171 5.0 14.0 0.00 0.00 0.00 83 1016.0
20180525192831 79 149 10.0 15.0 0.00 0.00 0.00 83 1015.9
20180525192320 79 142 11.0 16.0 0.00 0.00 0.00 82 1016.0
20180525191832 79 142 10.0 16.0 0.00 0.00 0.00 82 1016.1
20180525191322 79 152 12.0 19.0 0.00 0.00 0.00 82 1015.9
20180525190831 79 175 12.0 19.0 0.00 0.00 0.00 82 1015.9
20180525190324 79 165 11.0 16.0 0.00 0.00 0.00 82 1016.0
20180525185834 79 189 11.0 16.0 0.00 0.00 0.00 82 1015.9
20180525185330 79 131 5.0 17.0 0.00 0.00 0.00 82 1016.0
20180525184840 79 167 10.0 17.0 0.00 0.00 0.00 82 1016.1
20180525184329 79 167 10.0 17.0 0.00 0.00 0.00 82 1016.1
20180525183839 79 127 5.0 15.0 0.00 0.00 0.00 82 1016.1
20180525183329 79 64 5.0 15.0 0.00 0.00 0.00 82 1016.0
20180525182822 79 129 0.0 0.0 0.00 0.00 0.00 82 1016.1
20180525182335 79 145 0.0 0.0 0.00 0.00 0.00 82 1016.1
20180525181824 79 180 0.0 0.0 0.00 0.00 0.00 82 1016.3
20180525181333 79 166 0.0 0.0 0.00 0.00 0.00 81 1016.3
20180525180829 79 143 0.0 0.0 0.00 0.00 0.00 80 1016.4
20180525180342 80 157 0.0 0.0 0.00 0.00 0.00 80 1016.4
20180525175828 80 172 0.0 0.0 0.00 0.00 0.00 81 1016.4
20180525175340 81 69 0.0 0.0 0.00 0.00 0.00 82 1016.4
20180525174830 81 141 0.0 0.0 0.00 0.00 0.00 82 1016.3
20180525174340 81 132 0.0 0.0 0.00 0.00 0.00 82 1016.6
20180525173829 81 150 0.0 0.0 0.00 0.00 0.00 82 1016.6
20180525173323 81 126 0.0 0.0 0.00 0.00 0.00 82 1016.5
20180525172836 81 160 0.0 0.0 0.00 0.00 0.00 82 1016.5
20180525172326 81 115 0.0 0.0 0.00 0.00 0.00 82 1016.6
20180525171835 81 134 0.0 0.0 0.00 0.00 0.00 82 1016.6
20180525171325 81 113 0.0 0.0 0.00 0.00 0.00 82 1016.7
20180525170835 81 151 0.0 0.0 0.00 0.00 0.00 81 1016.6
20180525170326 81 121 0.0 0.0 0.00 0.00 0.00 81 1016.7
20180525165836 82 140 0.0 0.0 0.00 0.00 0.00 81 1016.8
20180525165325 82 142 0.0 0.0 0.00 0.00 0.00 79 1016.7
20180525164818 82 101 0.0 0.0 0.00 0.00 0.00 79 1016.8
20180525164330 83 137 0.0 0.0 0.00 0.00 0.00 80 1016.7
20180525163840 82 114 0.0 0.0 0.00 0.00 0.00 80 1016.7
20180525163330 82 34 0.0 0.0 0.00 0.00 0.00 80 1016.8
20180525162819 82 151 0.0 0.0 0.00 0.00 0.00 80 1016.8
20180525162331 82 124 0.0 0.0 0.00 0.00 0.00 80 1016.9
20180525161821 82 161 0.0 0.0 0.00 0.00 0.00 79 1017.0
20180525161331 82 147 0.0 0.0 0.00 0.00 0.00 79 1017.0
20180525160823 82 161 0.0 0.0 0.00 0.00 0.00 80 1017.0
20180525160340 81 153 0.0 0.0 0.00 0.00 0.00 80 1017.0
20180525155827 82 157 0.0 0.0 0.00 0.00 0.00 79 1017.0
20180525155337 81 141 0.0 0.0 0.00 0.00 0.00 79 1017.1
20180525154827 81 135 0.0 0.0 0.00 0.00 0.00 79 1017.1
20180525154337 81 159 0.0 0.0 0.00 0.00 0.00 79 1017.2
20180525153826 81 138 0.0 0.0 0.00 0.00 0.00 78 1017.2
20180525153340 81 122 0.0 0.0 0.00 0.00 0.00 78 1017.2
20180525152829 81 145 0.0 0.0 0.00 0.00 0.00 77 1017.3
20180525152325 81 113 0.0 0.0 0.00 0.00 0.00 78 1017.2
20180525151835 80 140 0.0 0.0 0.00 0.00 0.00 77 1017.3
20180525151324 80 102 0.0 0.0 0.00 0.00 0.00 79 1017.4
20180525150834 80 152 0.0 0.0 0.00 0.00 0.00 80 1017.5
20180525150324 81 144 0.0 0.0 0.00 0.00 0.00 81 1017.5
20180525145836 82 135 0.0 0.0 0.00 0.00 0.00 81 1017.6
20180525145325 82 151 0.0 0.0 0.00 0.00 0.00 81 1017.6
20180525144833 82 145 0.0 0.0 0.00 0.00 0.00 81 1017.5
20180525144325 81 148 0.0 0.0 0.00 0.00 0.00 81 1017.6
20180525143838 81 142 0.0 0.0 0.00 0.00 0.00 81 1017.7
20180525143330 81 146 0.0 0.0 0.00 0.00 0.00 81 1017.6
20180525142818 81 169 0.0 0.0 0.00 0.00 0.00 81 1017.5
20180525142331 82 139 0.0 0.0 0.00 0.00 0.00 81 1017.4
20180525141841 82 119 0.0 0.0 0.00 0.00 0.00 81 1017.4
20180525141329 82 120 0.0 0.0 0.00 0.00 0.00 81 1017.4
20180525140839 82 136 0.0 0.0 0.00 0.00 0.00 81 1017.3
20180525140329 82 164 0.0 0.0 0.00 0.00 0.00 80 1017.3